User: anonymous   Login
Location: Unspecified
(0.0000°N, 0.0000°E)
Time: 08:21:02
(UTC+00:00)
Language:

SIRIUSSAT-1 - Orbit

View from above orbital plane
View from above orbital plane
View from above satellite
View from above satellite

Ground track
Ground track

The orbit data is extracted from the following two-line orbital elements,

1 43595U 98067PG  20344.55055662  .07916525  12514-4  56251-3 0  9997
2 43595  51.6588  97.6693 0009437  42.2825  52.9592 16.39998780132780
Epoch (UTC): 09 December 2020 13:12:48
Eccentricity: 0.0009437
inclination: 51.6588°
perigee height: 159 km
apogee height: 172 km
right ascension of ascending node: 97.6693°
argument of perigee: 42.2825°
revolutions per day: 16.39998780
mean anomaly at epoch: 52.9592°
orbit number at epoch: 13278

The dashed part of the orbit path shows where the satellite is in the earth's shadow,  

DLR